"Pseudo-MPEC" for CAQPDF2

Created 2024 Sep 6 13:22:06 UT using Find_Orb

Click here for an explanation of pseudo-MPECs

 
 Astrometry: 
     CAQPDF2 1C2024 09 03.20682 21 42 54.36 -05 40 42.2    ~956M 21.2 GVNEOCPG96
     CAQPDF2 1C2024 09 03.21249 21 42 53.83 -05 42 30.6    ~956M 21.6 GVNEOCPG96
     CAQPDF2*1C2024 09 04.19694921 41 46.417-10 51 33.34   ~945b 21.17GVNEOCPG96
     CAQPDF2 1C2024 09 04.20257821 41 45.985-10 53 16.08   ~945b 20.42GVNEOCPG96
     CAQPDF2 1C2024 09 04.20820421 41 45.492-10 54 58.68   ~945b 21.03GVNEOCPG96
     CAQPDF2 1C2024 09 04.21384821 41 45.038-10 56 42.54   ~945b 21.64GVNEOCPG96
     CAQPDF2  C2024 09 04.23733721 41 42.797-11 03 55.20   ~946b 20.7 GVNEOCPH01
     CAQPDF2  C2024 09 04.24244521 41 42.358-11 05 28.71   ~946b 20.9 GVNEOCPH01
     CAQPDF2  C2024 09 04.25125821 41 41.597-11 08 10.05   ~946b 20.5 GVNEOCPH01
     CAQPDF2  C2024 09 04.26158421 41 40.707-11 11 19.08   ~946b 20.6 GVNEOCPH01
     CAQPDF2 KC2024 09 04.31119421 41 36.647-11 26 24.04   ~948M 20.75GVNEOCPI52
     CAQPDF2 KC2024 09 04.31525121 41 36.298-11 27 38.12   ~948M 20.52GVNEOCPI52
     CAQPDF2 KC2024 09 04.31929721 41 35.959-11 28 52.14   ~948M 20.64GVNEOCPI52
     CAQPDF2 KC2024 09 05.16042621 40 44.54 -15 37 56.7    ~95Bq 20.6 GXNEOCP858
     CAQPDF2 KC2024 09 05.17081821 40 43.75 -15 40 57.2    ~95Bq 20.4 GXNEOCP858
     CAQPDF2 KC2024 09 05.22366921 40 39.688-15 56 06.58   ~9567 20.84GVNEOCPI52
     CAQPDF2 KC2024 09 05.23105321 40 39.104-15 58 13.22   ~9567       VNEOCPI52
     CAQPDF2 KC2024 09 05.23740421 40 38.395-16 00 03.26   ~956M 21.1 GVNEOCPH01
     CAQPDF2 KC2024 09 05.24346821 40 37.898-16 01 47.58   ~956M 20.8 GVNEOCPH01
     CAQPDF2  C2024 09 05.25163421 40 37.236-16 04 07.64   ~956M 21.1 GVNEOCPH01
     CAQPDF2  C2024 09 05.25876021 40 36.660-16 06 09.87   ~956M 21.0 GVNEOCPH01

Station data:
(858) Tebbutt Observatory, Edgewood  (N35.093869 W106.220000)  US/New Mexico.
    Observer F. B. Zoltowski. 0.16-m refractor + CCD0.51-m Schmidt-Cassegrain
   + CCD.
(G96) Mt. Lemmon Survey  (N32.442729 W110.788720)  US/Arizona.  Observer E.
   J. Christensen. 1.5-m reflector + 10K CCD.
(H01) Magdalena Ridge Observatory, Socorro  (N33.984833 W107.189333)  US/New
   Mexico.  Observers W. H. Ryan, E. V. Ryan. Measurer W. H. Ryan. 2.4-m
   f/8.9 reflector + CCD.
(I52) Steward Observatory, Mt. Lemmon Station  (N32.442570 W110.788920)
   US/Arizona.  Observers T. A. Pruyne, B. M. Africano, E. J. Christensen, G.
   A. Farneth, D. C. Fuls, A. R. Gibbs, A. D. Grauer, H. Gröller, J. A.
   Johnson, R. A. Kowalski, S. M. Larson, G. J. Leonard, D. Rankin, R. L.
   Seaman, F. C. Shelly, K. W. Wierzchoś. 1.0-m prime focus + CCD.

Orbital elements:  CAQPDF2
   Perihelion 2024 Jun 29.45639 +/- 1.87 TT = 10:57:12 (JD 2460490.95639)
Epoch 2024 Sep  5.0 TT = JDT 2460558.5   Earth MOID: 0.1499      AutoNEOCP
M  44.62478909 +/- 1.9              (J2000 ecliptic)
n   0.66068116 +/- 0.0101           Peri.  118.39112 +/- 1.7
a   1.30559385 +/- 0.0134           Node   159.73931 +/- 0.019
e   0.1816233 +/- 0.00565           Incl.   50.77890 +/- 0.37
P   1.492/544.882d         H 23.93  G  0.15   U  9.7
q 1.06846758 +/- 0.00356    Q 1.54272013 +/- 0.0232
From 21 observations 2024 Sept. 3-5; mean residual 0".31
Residuals in arcseconds: 
240903 G96  .30+  .46-    240904 H01  .03+  .06+    240905 858  .41+  .72-    
240903 G96  .01-  .40+    240904 H01  .00   .12+    240905 I52  .35-  .21-    
240904 G96  .71-  .75-    240904 H01  .03-  .06+    240905 I52  .06-  .20+    
240904 G96  .00   .02-    240904 I52  .02+  .04+    240905 H01  .08+  .35+    
240904 G96  .18-  .76+    240904 I52  .05-  .11-    240905 H01  .05+  .19+    
240904 G96  .26+  .56+    240904 I52  .01+  .42-    240905 H01  .11+  .31+    
240904 H01  .02+  .03-    240905 858  .12-  .01-    240905 H01  .18+  .31+    

Ephemerides (geocentric):
Date (UTC) HH   RA             Dec           delta  r     elong  mag " sig PA
---- --------  ------------   ------------  ------ ------ -----  --- --------
2024 09 06 13  21 39 20.888   -21 54 46.56  .17272 1.1664 154.8 21.5 .431  21
2024 09 06 14  21 39 18.541   -22 05 31.13  .17302 1.1666 154.6 21.5 .438  22
2024 09 06 15  21 39 16.202   -22 16 13.39  .17332 1.1667 154.5 21.5 .445  23
2024 09 06 16  21 39 13.870   -22 26 53.34  .17363 1.1668 154.3 21.5 .452  24
2024 09 06 17  21 39 11.546   -22 37 30.98  .17394 1.1669 154.2 21.5 .460  24
2024 09 06 18  21 39 09.230   -22 48 06.30  .17425 1.1670 154.0 21.5 .467  25
2024 09 06 19  21 39 06.922   -22 58 39.30  .17456 1.1671 153.9 21.5 .475  26
2024 09 06 20  21 39 04.622   -23 09 09.99  .17487 1.1672 153.7 21.6 .484  26
2024 09 06 21  21 39 02.330   -23 19 38.36  .17518 1.1673 153.6 21.6 .492  27
2024 09 06 22  21 39 00.045   -23 30 04.42  .17550 1.1674 153.4 21.6 .501  28
2024 09 06 23  21 38 57.768   -23 40 28.15  .17582 1.1675 153.3 21.6 .510  29
2024 09 07 00  21 38 55.500   -23 50 49.57  .17614 1.1676 153.1 21.6 .520  29
2024 09 07 01  21 38 53.239   -24 01 08.66  .17646 1.1677 153.0 21.6 .529  30
2024 09 07 02  21 38 50.986   -24 11 25.44  .17678 1.1678 152.8 21.6 .539  30
2024 09 07 03  21 38 48.741   -24 21 39.90  .17711 1.1679 152.7 21.6 .549  31
2024 09 07 04  21 38 46.504   -24 31 52.04  .17743 1.1680 152.5 21.6 .560  32
2024 09 07 05  21 38 44.275   -24 42 01.86  .17776 1.1681 152.3 21.6 .570  32
2024 09 07 06  21 38 42.053   -24 52 09.37  .17809 1.1682 152.2 21.6 .581  33
2024 09 07 07  21 38 39.840   -25 02 14.56  .17842 1.1683 152.0 21.6 .592  33
2024 09 07 08  21 38 37.635   -25 12 17.43  .17875 1.1684 151.9 21.6 .604  34
2024 09 07 09  21 38 35.437   -25 22 17.99  .17909 1.1685 151.7 21.7 .615  34
2024 09 07 10  21 38 33.248   -25 32 16.25  .17943 1.1686 151.6 21.7 .627  35
2024 09 07 11  21 38 31.066   -25 42 12.19  .17976 1.1687 151.4 21.7 .639  35
2024 09 07 12  21 38 28.893   -25 52 05.82  .18010 1.1688 151.3 21.7 .651  36
2024 09 07 13  21 38 26.727   -26 01 57.14  .18044 1.1689 151.1 21.7 .664  36
2024 09 07 14  21 38 24.569   -26 11 46.17  .18079 1.1690 151.0 21.7 .677  37
2024 09 07 15  21 38 22.420   -26 21 32.88  .18113 1.1691 150.8 21.7 .690  37
2024 09 07 16  21 38 20.278   -26 31 17.30  .18148 1.1692 150.7 21.7 .703  37
2024 09 07 17  21 38 18.145   -26 40 59.43  .18182 1.1694 150.6 21.7 .717  38
2024 09 07 18  21 38 16.019   -26 50 39.25  .18217 1.1695 150.4 21.7 .731  38
2024 09 07 19  21 38 13.902   -27 00 16.79  .18252 1.1696 150.3 21.7 .745  38
2024 09 07 20  21 38 11.792   -27 09 52.04  .18287 1.1697 150.1 21.7 .759  39
2024 09 07 21  21 38 09.691   -27 19 25.00  .18323 1.1698 150.0 21.8 .773  39
2024 09 07 22  21 38 07.597   -27 28 55.68  .18358 1.1699 149.8 21.8 .788  39
2024 09 07 23  21 38 05.512   -27 38 24.08  .18394 1.1700 149.7 21.8 .803  40
2024 09 08 00  21 38 03.434   -27 47 50.20  .18430 1.1701 149.5 21.8 .818  40
2024 09 08 01  21 38 01.365   -27 57 14.05  .18466 1.1702 149.4 21.8 .833  40
2024 09 08 02  21 37 59.304   -28 06 35.64  .18502 1.1703 149.2 21.8 .849  41
2024 09 08 03  21 37 57.251   -28 15 54.96  .18538 1.1704 149.1 21.8 .865  41
2024 09 08 04  21 37 55.206   -28 25 12.01  .18574 1.1705 148.9 21.8 .881  41
2024 09 08 05  21 37 53.169   -28 34 26.81  .18611 1.1706 148.8 21.8 .897  41
2024 09 08 06  21 37 51.140   -28 43 39.36  .18648 1.1707 148.6 21.8 .913  42
2024 09 08 07  21 37 49.119   -28 52 49.66  .18684 1.1708 148.5 21.8 .930  42
2024 09 08 08  21 37 47.106   -29 01 57.72  .18721 1.1709 148.3 21.8 .947  42
2024 09 08 09  21 37 45.102   -29 11 03.53  .18758 1.1710 148.2 21.8 .964  42
2024 09 08 10  21 37 43.105   -29 20 07.11  .18796 1.1711 148.0 21.9 .981  42
2024 09 08 11  21 37 41.117   -29 29 08.46  .18833 1.1712 147.9 21.9 1.00  43
2024 09 08 12  21 37 39.137   -29 38 07.59  .18871 1.1713 147.8 21.9 1.02  43